Weather History for Newcastle, WY

Change the Weather History Date:

Wednesday, October 2, 2013

  Actual Average (KCUT) Record (KCUT)
Temperature  
Mean Temperature 52 °F 47 °F  
Max Temperature 64 °F 60 °F 82 °F (1963)
Min Temperature 41 °F 35 °F 19 °F (1964)
Degree Days  
Heating Degree Days 12 18  
Month to date heating degree days 36  
Since 1 July heating degree days 522  
Cooling Degree Days 0 0  
Month to date cooling degree days 0  
Year to date cooling degree days 177  
Growing Degree Days 2 (Base 50)    
Moisture  
Dew Point 31 °F    
Average Humidity 41    
Maximum Humidity 70    
Minimum Humidity 27    
Precipitation  
Precipitation 0.00 in 0.07 in 2.11 in (1930)
Month to date precipitation 0.14  
Year to date precipitation 16.63  
Sea Level Pressure  
Sea Level Pressure 29.95 in    
Wind  
Wind Speed 11 mph (NNW)    
Max Wind Speed 20 mph    
Max Gust Speed 30 mph    
T = Trace of Precipitation, MM = Missing Value Source: NWS Daily Summary

Daily Weather History Graph

Daily Weather History Graph

Search for Another Location

Airport:

Trip Planner

Search our weather history database for the weather conditions in past years. The results will help you decide how hot, cold, wet, or windy it might be!

Date:

Astronomy

Oct. 02, 2013 Rise Set
Actual Time 6:56 AM MDT 6:35 PM MDT
Civil Twilight 6:27 AM MDT 7:04 PM MDT
Nautical Twilight 5:54 AM MDT 7:37 PM MDT
Astronomical Twilight 5:20 AM MDT 8:11 PM MDT
Moon 4:28 AM MDT (10/2) 5:15 PM MDT (10/2)
Length of Visible Light 12h 36m
Length of Day
11h 39m
Waning Crescent, 6% of the Moon is Illuminated
Oct 2
Waning Crescent
Oct 4
New
Oct 11
First Quarter
Oct 18
Full
Oct 26
Last Quarter

Hourly Weather History & Observations

Time (MDT) Temp. Windchill Dew Point Humidity Pressure Visibility Wind Dir Wind Speed Gust Speed Precip Events Conditions
12:15 AM 60.8 °F - 32.0 °F 34% 29.88 in - ESE 9.2 mph - N/A   Clear
12:35 AM 60.8 °F - 32.0 °F 34% 29.88 in - ESE 11.5 mph - N/A   Clear
12:55 AM 60.8 °F - 32.0 °F 34% 29.87 in - ESE 11.5 mph - N/A   Clear
1:15 AM 59.0 °F - 32.0 °F 36% 29.87 in - ESE 11.5 mph - N/A   Clear
1:35 AM 60.8 °F - 33.8 °F 36% 29.87 in - SE 11.5 mph - N/A   Clear
1:55 AM 59.0 °F - 33.8 °F 39% 29.88 in - SE 10.4 mph - N/A   Clear
2:15 AM 59.0 °F - 33.8 °F 39% 29.88 in - ESE 11.5 mph - N/A   Clear
2:35 AM 59.0 °F - 33.8 °F 39% 29.88 in - ESE 8.1 mph - N/A   Clear
2:55 AM 57.2 °F - 33.8 °F 41% 29.88 in - SE 8.1 mph - N/A   Clear
3:15 AM 57.2 °F - 33.8 °F 41% 29.87 in - ESE 6.9 mph - N/A   Clear
3:35 AM 57.2 °F - 33.8 °F 41% 29.88 in - SE 4.6 mph - N/A   Clear
3:55 AM 55.4 °F - 33.8 °F 44% 29.88 in - ESE 5.8 mph - N/A   Clear
4:15 AM 53.6 °F - 33.8 °F 47% 29.88 in - SE 4.6 mph - N/A   Clear
4:35 AM 50.0 °F - 33.8 °F 54% 29.89 in - NW 5.8 mph - N/A   Clear
4:55 AM 50.0 °F - 33.8 °F 54% 29.89 in - North 6.9 mph - N/A   Clear
5:15 AM 50.0 °F - 33.8 °F 54% 29.91 in - NW 6.9 mph - N/A   Clear
5:35 AM 46.4 °F 41.5 °F 33.8 °F 62% 29.91 in - North 10.4 mph - N/A   Clear
5:55 AM 44.6 °F 39.7 °F 33.8 °F 66% 29.93 in - NW 9.2 mph - N/A   Clear
6:15 AM 42.8 °F 37.0 °F 32.0 °F 66% 29.95 in - NW 10.4 mph - N/A   Clear
6:35 AM 42.8 °F 35.4 °F 32.0 °F 66% 29.95 in - NNW 15.0 mph 21.9 mph N/A   Clear
6:55 AM 42.8 °F 34.5 °F 32.0 °F 66% 29.95 in - North 18.4 mph 23.0 mph N/A   Clear
7:15 AM 42.8 °F 36.6 °F 32.0 °F 66% 29.95 in - NW 11.5 mph - N/A   Clear
7:35 AM 41.0 °F 35.2 °F 32.0 °F 70% 29.95 in - NW 9.2 mph - N/A   Clear
7:55 AM 44.6 °F 38.4 °F 32.0 °F 61% 29.96 in - NW 12.7 mph 17.3 mph N/A   Clear
8:15 AM 48.2 °F - 30.2 °F 50% 29.97 in - NW 19.6 mph 26.5 mph N/A   Clear
8:35 AM 50.0 °F - 28.4 °F 43% 29.98 in - NNW 19.6 mph 29.9 mph N/A   Clear
8:55 AM 50.0 °F - 28.4 °F 43% 29.99 in - NW 16.1 mph 23.0 mph N/A   Clear
9:15 AM 50.0 °F - 28.4 °F 43% 30.00 in - NW 18.4 mph 24.2 mph N/A   Clear
9:35 AM 50.0 °F - 26.6 °F 40% 30.02 in - NW 15.0 mph 21.9 mph N/A   Clear
9:55 AM 50.0 °F - 26.6 °F 40% 30.02 in - NNW 19.6 mph 24.2 mph N/A   Clear
10:15 AM 51.8 °F - 26.6 °F 38% 30.01 in - NNW 15.0 mph 23.0 mph N/A   Clear
10:35 AM 53.6 °F - 26.6 °F 35% 30.02 in - NNW 13.8 mph 20.7 mph N/A   Clear
10:55 AM 55.4 °F - 26.6 °F 33% 30.02 in - NW 16.1 mph - N/A   Clear
11:15 AM 55.4 °F - 26.6 °F 33% 30.02 in - NNW 15.0 mph 20.7 mph N/A   Clear
11:35 AM 55.4 °F - 26.6 °F 33% 30.03 in - NW 15.0 mph 19.6 mph N/A   Clear
11:55 AM 57.2 °F - 28.4 °F 33% 30.02 in - NNW 13.8 mph - N/A   Clear
12:15 PM 59.0 °F - 28.4 °F 31% 30.01 in - NW 15.0 mph - N/A   Clear
12:35 PM 60.8 °F - 28.4 °F 29% 30.00 in - NNW 11.5 mph - N/A   Clear
12:55 PM 62.6 °F - 28.4 °F 27% 30.00 in - NNW 9.2 mph 16.1 mph N/A   Clear
1:15 PM 62.6 °F - 28.4 °F 27% 30.00 in - NW 11.5 mph - N/A   Clear
1:35 PM 62.6 °F - 28.4 °F 27% 29.99 in - NW 11.5 mph 18.4 mph N/A   Clear
1:55 PM 64.4 °F - 30.2 °F 28% 29.98 in - NW 12.7 mph 18.4 mph N/A   Clear
2:15 PM 64.4 °F - 30.2 °F 28% 29.97 in - WNW 13.8 mph - N/A   Clear
2:35 PM 62.6 °F - 30.2 °F 30% 29.96 in - WNW 12.7 mph 18.4 mph N/A   Clear
2:55 PM 64.4 °F - 30.2 °F 28% 29.96 in - NW 12.7 mph 18.4 mph N/A   Clear
3:15 PM 64.4 °F - 30.2 °F 28% 29.96 in - WNW 13.8 mph - N/A   Clear
3:35 PM 64.4 °F - 30.2 °F 28% 29.95 in - NW 13.8 mph 18.4 mph N/A   Clear
3:55 PM 64.4 °F - 30.2 °F 28% 29.95 in - WNW 15.0 mph - N/A   Clear
4:15 PM 62.6 °F - 30.2 °F 30% 29.95 in - WNW 9.2 mph 16.1 mph N/A   Clear
4:35 PM 62.6 °F - 30.2 °F 30% 29.95 in - NW 13.8 mph - N/A   Clear
4:55 PM 62.6 °F - 30.2 °F 30% 29.95 in - WSW 4.6 mph - N/A   Clear
5:15 PM 60.8 °F - 30.2 °F 31% 29.95 in - Calm Calm - N/A   Clear
5:35 PM 60.8 °F - 30.2 °F 31% 29.95 in - South 5.8 mph - N/A   Clear
5:55 PM 60.8 °F - 30.2 °F 31% 29.95 in - SSW 4.6 mph - N/A   Clear
6:15 PM 59.0 °F - 30.2 °F 34% 29.96 in - SSE 16.1 mph - N/A   Clear
6:35 PM 57.2 °F - 30.2 °F 36% 29.97 in - SSE 9.2 mph - N/A   Clear
6:55 PM 53.6 °F - 32.0 °F 44% 29.97 in - SE 5.8 mph - N/A   Clear
7:15 PM 51.8 °F - 32.0 °F 47% 29.98 in - ESE 3.5 mph - N/A   Clear
7:35 PM 53.6 °F - 32.0 °F 44% 29.98 in - Calm Calm - N/A   Clear
7:55 PM 53.6 °F - 30.2 °F 41% 29.98 in - ENE 10.4 mph - N/A   Clear
8:15 PM 53.6 °F - 32.0 °F 44% 29.97 in - ENE 13.8 mph - N/A   Clear
8:35 PM 53.6 °F - 32.0 °F 44% 29.97 in - ENE 15.0 mph - N/A   Clear
8:55 PM 53.6 °F - 30.2 °F 41% 29.97 in - ENE 15.0 mph 20.7 mph N/A   Clear
9:15 PM 51.8 °F - 30.2 °F 44% 29.95 in - ENE 16.1 mph 19.6 mph N/A   Clear
9:35 PM 51.8 °F - 30.2 °F 44% 29.95 in - ENE 15.0 mph 20.7 mph N/A   Clear
9:55 PM 51.8 °F - 30.2 °F 44% 29.93 in - ENE 16.1 mph 21.9 mph N/A   Clear
10:15 PM 51.8 °F - 30.2 °F 44% 29.93 in - ENE 17.3 mph 20.7 mph N/A   Clear
10:35 PM 51.8 °F - 30.2 °F 44% 29.93 in - ENE 15.0 mph 21.9 mph N/A   Clear
10:55 PM 51.8 °F - 30.2 °F 44% 29.94 in - North - - N/A   Scattered Clouds
11:15 PM 51.8 °F - 32.0 °F 47% 29.95 in - SW 3.5 mph 10.4 mph N/A   Scattered Clouds
11:35 PM 50.0 °F - 32.0 °F 50% 29.95 in - Calm Calm - N/A   Clear
11:55 PM 50.0 °F - 32.0 °F 50% 29.95 in - NW 4.6 mph - N/A   Clear